Tracking 18984 objects as of 23-Feb-2018
HD Live streaming from Space Station
objects crossing your sky now

AZUR (GRS A)

Track AZUR (GRS A) now!
10-day predictions
AZUR (GRS A) is classified as:


NORAD ID: 4221
Int'l Code: 1969-097A
Perigee: 363.2 km
Apogee: 1,272.4 km
Inclination: 102.7 °
Period: 101.1 minutes
Semi major axis: 7188 km
RCS: 0.3339 m2 (medium)
Launch date: November 8, 1969
Source: Germany (GER)
Launch site: AIR FORCE WESTERN TEST RANGE (AFWTR)
aabbcc
Your satellite tracking list
Your tracking list is empty




NASA's NSSDC Master Catalog

Two Line Element Set (TLE):
1 04221U 69097A   18054.47036096  .00001560  00000-0  80225-4 0  9996
2 04221 102.7014  36.9670 0632393 218.8804 136.5231 14.24356164284937
Source of the keplerian elements: AFSPC